Location: Valley Falls
(35.0169°N, 81.9753°W)
Time: 22:40:55
(UTC+00:00)

N. Korean satellite - Visible Passes

Search period start: 26 November 2022 00:00
Search period end: 06 December 2022 00:00
Orbit: 422 x 454 km, 97.3° (Epoch: 26 November)

Date Brightness Start Highest point End Pass type
(mag) Time Alt. Az. Time Alt. Az. Time Alt. Az.
26 Nov 8.1 10:18:32 10° NNE 10:21:43 35° E 10:24:51 10° SSE visible
27 Nov 10.0 09:42:28 10° E 09:42:56 10° E 09:43:24 10° E visible
27 Nov 7.1 11:12:27 10° N 11:15:32 32° WNW 11:18:35 10° SW visible
28 Nov 6.9 10:33:36 10° NNE 10:37:00 62° E 10:40:20 10° S visible
29 Nov 9.4 09:55:57 10° NE 09:58:13 17° E 10:00:27 10° SE visible
29 Nov 7.7 11:28:04 10° NNW 11:30:38 20° WNW 11:33:10 10° WSW visible
30 Nov 6.2 10:48:41 10° N 10:52:06 75° WNW 10:55:27 10° SSW visible
30 Nov 9.5 22:48:00 10° SW 22:50:26 19° W 22:52:55 10° NW visible
01 Dec 8.6 10:10:24 10° NE 10:13:19 26° E 10:16:12 10° SSE visible
01 Dec 8.2 11:43:57 10° NW 11:45:32 13° WNW 11:47:07 10° W visible
02 Dec 6.7 11:03:46 10° N 11:07:01 43° WNW 11:10:13 10° SSW visible
02 Dec 9.9 23:04:08 10° WSW 23:05:27 12° W 23:06:47 10° WNW visible
03 Dec 7.6 10:25:00 10° NNE 10:28:15 43° E 10:31:28 10° S visible
04 Dec 9.8 09:47:47 10° ENE 09:49:14 12° E 09:50:40 10° ESE visible
04 Dec 7.3 11:18:52 10° NNW 11:21:45 26° WNW 11:24:36 10° SW visible
05 Dec 6.4 10:39:37 10° NNE 10:43:00 77° ESE 10:46:19 10° S visible
05 Dec 9.1 22:38:21 10° SSW 22:41:11 25° W 22:44:05 10° NW visible
